(300889) = 2008 BL5

Discovered at Mount Lemmon on 2008-01-16 by Mt. Lemmon Survey.

Orbit

Orbit type: Main Belt

Note: WebGL enabled browser required.

epoch2024-03-31.0
epoch JD2460400.5
perihelion date2023-08-17.39867
perihelion JD2460173.89867
argument of perihelion (°)15.98240
ascending node (°)58.75310
inclination (°)9.94854
eccentricity0.0491461
perihelion distance (AU)2.9353955
Tisserand w.r.t. Jupiter3.2
ΔV w.r.t. Earth (km/sec)11.1
semimajor axis (AU)3.0871152
mean anomaly (°)41.17535
mean daily motion (°/day)0.18170830
aphelion distance (AU)3.239
period (years)5.42
P-vector [x]0.26681494
P-vector [y]0.86422164
P-vector [z]0.42653340
Q-vector [x]-0.95236219
Q-vector [y]0.16860555
Q-vector [z]0.25412287
absolute magnitude15.77
phase slope0.15
uncertainty0
referenceE2024-G51
observations used357
oppositions16
arc length (days)8172
first opposition used2001
last opposition used2024
residual rms (arc-secs)0.75
perturbers coarse indicatorM-v
perturbers precise indicator003Ek
first observation date used2001-11-19.0
last observation date used2024-04-04.0
computer nameMPCLINUX
JD of orbit computation2456937.167659
perihelion JD uncertainty (days)4.6020E-04
argument of perihelion uncertainty (°)9.6969E-05
ascending node uncertainty (°)4.5783E-05
inclination uncertainty (°)8.2216E-06
eccentricity uncertainty 6.7310E-08
perihelion distance uncertainty (AU)2.2181E-07
Minimum Orbit Intersection Distances (in AU)
for orbit epoch: 2460400.5, reference: E2024-G51
Mercury2.62778
Venus2.21562
Earth1.95142
Mars1.36515
Jupiter1.97793
Saturn6.12659
Uranus15.3775
Neptune26.8477

Observations

357 total observations over interval: 2001 11 19.36154 – 2024 01 19.160800
These data are available for download (format description).

Date (UT) J2000 RA J2000 Dec Magn Location Ref
2001 11 19.36154 05 03 44.23 +25 43 53.4   704 – Lincoln Laboratory ETS, New Mexico MPS 407612
2001 11 19.39093 05 03 42.70 +25 43 57.0   704 – Lincoln Laboratory ETS, New Mexico MPS 407612
2001 11 19.40563 05 03 41.93 +25 44 00.4   704 – Lincoln Laboratory ETS, New Mexico MPS 407612
2001 12 15.23134 04 39 23.79 +26 27 24.0   704 – Lincoln Laboratory ETS, New Mexico MPS 407612
2001 12 15.24645 04 39 22.89 +26 27 24.4   704 – Lincoln Laboratory ETS, New Mexico MPS 407612
2001 12 15.27665 04 39 21.25 +26 27 25.8   704 – Lincoln Laboratory ETS, New Mexico MPS 407612
2001 12 19.22622 04 35 45.72 +26 30 46.5   704 – Lincoln Laboratory ETS, New Mexico MPS 407612
2001 12 19.24137 04 35 44.92 +26 30 49.8   704 – Lincoln Laboratory ETS, New Mexico MPS 407612
2001 12 19.27164 04 35 43.23 +26 30 50.1   704 – Lincoln Laboratory ETS, New Mexico MPS 407612
2001 12 19.28678 04 35 42.43 +26 30 51.8   704 – Lincoln Laboratory ETS, New Mexico MPS 407612
2003 03 08.46447 11 23 12.74 +19 20 41.6 20.0   644 – Palomar Mountain/NEAT MPS 289460
2003 03 08.47503 11 23 12.20 +19 20 44.2 20.2   644 – Palomar Mountain/NEAT MPS 289460
2003 03 08.48554 11 23 11.67 +19 20 46.6 20.1   644 – Palomar Mountain/NEAT MPS 289460
2006 10 16.30256 02 34 06.02 +08 19 03.4 21.1 V 703 – Catalina Sky Survey MPS 289460
2006 10 16.30794 02 34 05.80 +08 19 03.9 20.3 V 703 – Catalina Sky Survey MPS 289460
2006 10 16.31331 02 34 05.48 +08 19 03.3 20.4 V 703 – Catalina Sky Survey MPS 289460
2006 10 16.31868 02 34 05.23 +08 19 03.1 20.1 V 703 – Catalina Sky Survey MPS 289460
2006 11 01.22865 02 20 45.02 +07 54 12.9 19.6 V G96 – Mt. Lemmon Survey MPS 289460
2006 11 01.23435 02 20 44.73 +07 54 12.6 19.7 V G96 – Mt. Lemmon Survey MPS 289460
2006 11 01.24010 02 20 44.41 +07 54 12.3 19.7 V G96 – Mt. Lemmon Survey MPS 289460
2006 11 01.24586 02 20 44.12 +07 54 11.7 19.6 V G96 – Mt. Lemmon Survey MPS 289460
2007 01 10.17281 01 58 31.26 +10 13 10.8 20.3 V G96 – Mt. Lemmon Survey MPS 289460
2007 01 10.17787 01 58 31.40 +10 13 12.7 20.6 V G96 – Mt. Lemmon Survey MPS 289460
2007 01 10.18289 01 58 31.51 +10 13 13.9 20.5 V G96 – Mt. Lemmon Survey MPS 289460
2007 01 10.18793 01 58 31.65 +10 13 15.8 20.5 V G96 – Mt. Lemmon Survey MPS 289460
2008 01 16.29956 09 05 32.89 +30 41 06.6 20.1 V G96 – Mt. Lemmon Survey MPS 235572
2008 01 16.30549 09 05 32.56 +30 41 08.8 20.1 V G96 – Mt. Lemmon Survey MPS 235572
2008 01 16.31133 09 05 32.28 +30 41 10.7 20.2 V G96 – Mt. Lemmon Survey MPS 235572
2008 01 16.31720 09 05 32.02 +30 41 13.2 20.2 V G96 – Mt. Lemmon Survey MPS 235572
2008 01 19.25745 09 03 06.87 +30 58 16.2 19.8 V G96 – Mt. Lemmon Survey MPS 235572
2008 01 19.26273 09 03 06.58 +30 58 18.4 19.7 V G96 – Mt. Lemmon Survey MPS 235572
2008 01 19.26812 09 03 06.37 +30 58 19.7 20.0 V G96 – Mt. Lemmon Survey MPS 235572
2008 01 19.27344 09 03 06.01 +30 58 22.0 19.8 V G96 – Mt. Lemmon Survey MPS 235572
2008 01 30.34453 08 53 10.96 +31 54 10.7 20.2 V 703 – Catalina Sky Survey MPS 289460
2008 01 30.35204 08 53 10.50 +31 54 12.3 20.1 V 703 – Catalina Sky Survey MPS 289460
2008 01 30.35955 08 53 10.06 +31 54 15.8 20.0 V 703 – Catalina Sky Survey MPS 289460
2008 01 30.36714 08 53 09.52 +31 54 16.0 19.6 V 703 – Catalina Sky Survey MPS 289460
2008 02 07.27561 08 45 53.19 +32 23 12.9   704 – Lincoln Laboratory ETS, New Mexico MPS 407612
2008 02 07.28771 08 45 52.49 +32 23 15.7   704 – Lincoln Laboratory ETS, New Mexico MPS 407612
2008 02 07.29982 08 45 51.86 +32 23 17.3   704 – Lincoln Laboratory ETS, New Mexico MPS 407612
2008 02 07.31195 08 45 51.18 +32 23 18.5   704 – Lincoln Laboratory ETS, New Mexico MPS 407612
2008 02 07.32406 08 45 50.57 +32 23 20.6   704 – Lincoln Laboratory ETS, New Mexico MPS 407612
2008 03 03.26213 08 28 12.90 +32 42 36.4 20.4 V G96 – Mt. Lemmon Survey MPS 289460
2008 03 03.26558 08 28 12.79 +32 42 36.3 20.5 V G96 – Mt. Lemmon Survey MPS 289460
2008 03 03.26909 08 28 12.72 +32 42 35.6 20.6 V G96 – Mt. Lemmon Survey MPS 289460
2008 03 03.27258 08 28 12.61 +32 42 35.5 20.4 V G96 – Mt. Lemmon Survey MPS 289460
2009 04 02.35758 14 16 34.38 -05 41 13.7 20.3 V 691 – Steward Observatory, Kitt Peak-Spacewatch MPS 289460
2009 04 02.37528 14 16 33.64 -05 41 11.2 20.4 V 691 – Steward Observatory, Kitt Peak-Spacewatch MPS 289460
2009 04 02.39297 14 16 32.90 -05 41 08.6 20.3 V 691 – Steward Observatory, Kitt Peak-Spacewatch MPS 289460
2009 04 21.39108 14 01 57.14 -04 56 38.6 20.4 V G96 – Mt. Lemmon Survey MPS 289460
2009 04 21.39859 14 01 56.78 -04 56 37.4 20.4 V G96 – Mt. Lemmon Survey MPS 289460
2009 04 21.40617 14 01 56.38 -04 56 36.6 20.3 V G96 – Mt. Lemmon Survey MPS 289460
2009 04 21.41365 14 01 55.99 -04 56 35.4 20.3 V G96 – Mt. Lemmon Survey MPS 289460
2009 05 01.15843 13 54 04.01 -04 39 20.7 20.2 V 691 – Steward Observatory, Kitt Peak-Spacewatch MPS 289460
2009 05 01.17607 13 54 03.11 -04 39 18.6 20.2 V 691 – Steward Observatory, Kitt Peak-Spacewatch MPS 289460
2009 05 01.19370 13 54 02.31 -04 39 17.1 20.7 V 691 – Steward Observatory, Kitt Peak-Spacewatch MPS 289460
2009 05 26.18507 13 38 16.41 -04 34 12.5   291 – LPL/Spacewatch II MPS 289460
2009 05 26.19336 13 38 16.19 -04 34 13.5   291 – LPL/Spacewatch II MPS 289460
2009 05 26.20053 13 38 16.01 -04 34 13.7   291 – LPL/Spacewatch II MPS 289460
2011 09 07.49972 00 31 20.321 -10 39 54.41 19.9 i F51 – Pan-STARRS 1, Haleakala MPS 391200
2011 09 07.51199 00 31 19.828 -10 39 57.58 19.9 i F51 – Pan-STARRS 1, Haleakala MPS 391200
2011 09 25.44439 00 18 00.205 -11 53 03.75 20.3 g F51 – Pan-STARRS 1, Haleakala MPS 396212
2011 09 25.45606 00 17 59.621 -11 53 06.38 20.4 g F51 – Pan-STARRS 1, Haleakala MPS 396212
2011 10 05.42871 00 10 02.924 -12 20 09.88 19.8 i F51 – Pan-STARRS 1, Haleakala MPS 394262
2011 10 05.44016 00 10 02.365 -12 20 11.12 19.7 i F51 – Pan-STARRS 1, Haleakala MPS 394262
2011 10 05.45299 00 10 01.750 -12 20 12.67 20.0 r F51 – Pan-STARRS 1, Haleakala MPS 394262
2011 10 05.46364 00 10 01.237 -12 20 13.90 19.8 r F51 – Pan-STARRS 1, Haleakala MPS 394262
2011 11 30.11294 23 52 10.81 -10 05 42.6 20.5 V G96 – Mt. Lemmon Survey MPS 403777
2011 11 30.11819 23 52 10.88 -10 05 40.7 20.9 V G96 – Mt. Lemmon Survey MPS 403777
2011 11 30.12341 23 52 10.99 -10 05 38.5 20.8 V G96 – Mt. Lemmon Survey MPS 403777
2011 11 30.12865 23 52 11.02 -10 05 36.8 21.2 V G96 – Mt. Lemmon Survey MPS 403777
2012 10 27.628255 06 24 28.995 +27 27 09.52 20.4 z F51 – Pan-STARRS 1, Haleakala MPS 441530
2012 10 27.639989 06 24 29.087 +27 27 11.78 20.6 z F51 – Pan-STARRS 1, Haleakala MPS 441530
2012 12 31.48648 05 44 26.594 +31 19 21.96 19.4 i F51 – Pan-STARRS 1, Haleakala MPS 449549
2012 12 31.49784 05 44 25.934 +31 19 22.96 19.5 i F51 – Pan-STARRS 1, Haleakala MPS 449549
2013 01 18.31123 05 30 35.425 +31 33 03.27 20.0 r F51 – Pan-STARRS 1, Haleakala MPS 453147
2013 01 18.32372 05 30 34.974 +31 33 03.55 20.0 r F51 – Pan-STARRS 1, Haleakala MPS 453147
2014 03 12.31521 12 14 19.73 +12 37 27.1 19.5 V G96 – Mt. Lemmon Survey MPS 506228
2014 03 12.31931 12 14 19.53 +12 37 27.9 19.9 V G96 – Mt. Lemmon Survey MPS 506228
2014 03 12.32343 12 14 19.31 +12 37 28.8 19.7 V G96 – Mt. Lemmon Survey MPS 506228
2014 03 12.32753 12 14 19.13 +12 37 30.0 19.9 V G96 – Mt. Lemmon Survey MPS 506228
2014 03 21.53691 12 07 00.24 +13 13 59.1 20.2 R D29 – Purple Mountain Observatory, XuYi Station MPS 508371
2014 03 21.55281 12 06 59.43 +13 14 01.7 21.8 R D29 – Purple Mountain Observatory, XuYi Station MPS 508371
2014 03 30.21850 12 00 04.65 +13 39 05.4 20.1 r G45 – Space Surveillance Telescope, Atom Site MPS 536186
2014 03 30.22992 12 00 04.16 +13 39 07.9 19.7 r G45 – Space Surveillance Telescope, Atom Site MPS 536186
2014 03 30.24131 12 00 03.62 +13 39 08.4 20.3 r G45 – Space Surveillance Telescope, Atom Site MPS 536186
2014 03 30.25407 12 00 02.95 +13 39 10.6 20.0 r G45 – Space Surveillance Telescope, Atom Site MPS 536186
2014 03 30.26546 12 00 02.41 +13 39 11.9 20.4 r G45 – Space Surveillance Telescope, Atom Site MPS 536186
2015 06 22.39041 16 18 48.210 -25 11 11.27 20.7 w F52 – Pan-STARRS 2, Haleakala MPS 614003
2015 06 22.41041 16 18 47.304 -25 11 11.18 20.7 w F52 – Pan-STARRS 2, Haleakala MPS 614003
2015 06 22.42040 16 18 46.858 -25 11 11.29 20.8 w F52 – Pan-STARRS 2, Haleakala MPS 614003
